Volver al catálogo

STARLINK-35689

ActivoComunicacionesVLEO
NORAD 66494·PAYLOAD·🇺🇸 United States

Lanzado Nov 15, 2025 desde Cape Canaveral Space Force Station

Loading…

Próximos Pases (próximas 24 horas)

TLE

ActualizadoSource: CelesTrak SupGP

Época: Sep 15, 2026, 03:32 UTC

1 66494C 25263K   26258.14770833  .00036582  00000+0  13247-2 0  2583
2 66494  43.0013   1.1227 0001675 258.4297 318.0179 15.27567759    15

Sigue STARLINK-35689 en tiempo real con AllMySat

Download on the App Store